Location: Unspecified
(0.0000°N, 0.0000°E)
Time: 19:33:39
(UTC+00:00)

Vanguard 1 - Pass Details

Date: 21 April 2026
Orbit: 654 x 3817 km, 34.2° (Epoch: 18 May)

Event Time Altitude Azimuth Distance (km) Brightness Sun altitude
Rises 21:31:49 0° 270° (W) 6,390 14.8 -51.6°
Reaches altitude 10° 21:36:25 10° 280° (W) 5,785 14.4 -52.7°
Maximum altitude 21:52:40 32° 336° (NNW) 5,110 13.7 -56.5°
Drops below altitude 10° 22:12:09 10° 33° (NNE) 6,779 14.2 -60.9°
Sets 22:18:25 0° 43° (NE) 7,566 14.5 -62.3°
